DateTimeUTC,F1_A11,F1_S11,BsB_S11,BsG_S11,BsR_S11,BbsB_S11,BbsG_S11,BbsR_S11,BaB_A11,BaG_A11,BaR_A11,Tu_S11,T_S11,Uu_S11,U_S11,P_S11,T1_A11
2021-12-08T07:00:00Z,00000200,21000000,,,,,,,-000.06,-000.52,-000.54,22.2,28.7,,00.0,0636.5,32.1
2021-12-08T07:01:00Z,00000200,21000000,,,,,,,-000.15,0000.08,0000.42,22.2,28.8,,00.0,0636.5,32.1
2021-12-08T07:02:00Z,00000200,21000000,,,,,,,-000.09,0000.01,-000.17,22.1,28.8,,00.0,0636.5,32.1
2021-12-08T07:03:00Z,00000200,61000000,,,,,,,-000.04,0000.03,-000.04,22.1,28.8,,00.0,0636.5,32.0
2021-12-08T07:04:00Z,00000200,41000000,0000.03,0000.45,0000.04,-000.28,-000.25,-000.05,0000.08,-000.18,-000.01,22.0,28.5,,00.0,0637.2,32.0
2021-12-08T07:05:00Z,00000200,01000000,-000.04,0000.19,-000.20,0000.48,0000.14,-000.30,-000.31,-000.04,-000.21,22.0,28.4,,00.0,0637.3,32.0
2021-12-08T07:06:00Z,00000200,01000000,-000.69,0000.58,0000.14,-000.26,0000.07,-000.06,-000.08,-000.11,0000.03,21.9,28.4,,00.0,0637.3,31.9
2021-12-08T07:07:00Z,00000200,01000000,0000.46,0000.32,0000.13,0000.04,-000.02,0000.05,-000.04,-000.17,-000.01,21.8,28.3,,00.0,0637.3,31.9
2021-12-08T07:08:00Z,00000200,01000000,-000.07,-000.05,-000.09,-000.08,-000.02,-000.01,-000.10,-000.01,-000.25,21.8,28.3,,00.0,0637.3,31.9
2021-12-08T07:09:00Z,00000200,01000000,0000.34,0000.18,0000.22,0000.37,0000.10,0000.15,0000.06,0000.06,0000.19,21.7,28.2,,00.0,0637.3,31.9
2021-12-08T07:10:00Z,00000200,01000000,-000.41,0000.33,0000.12,-000.18,0000.38,0000.02,0000.45,-000.07,-000.04,21.8,28.2,,00.0,0637.4,31.9
2021-12-08T07:11:00Z,00000200,01000000,-000.64,-000.07,0000.24,0000.41,-000.13,0000.04,-000.17,0000.31,0000.42,21.8,28.2,,00.0,0637.3,31.9
2021-12-08T07:12:00Z,00000200,01000000,0000.35,-000.19,0000.25,0000.26,0000.02,-000.06,-000.11,0000.02,-000.15,21.8,28.2,,00.0,0637.3,31.9
2021-12-08T07:13:00Z,00000200,01000000,-000.21,0000.08,0000.04,-000.66,-000.04,0000.08,0000.31,0000.09,0000.06,21.8,28.2,,00.0,0637.3,31.9
2021-12-08T07:14:00Z,00000200,01000000,0000.05,0000.01,-000.00,0000.01,0000.16,-000.37,-000.18,0000.01,-000.18,21.8,28.2,,00.0,0637.2,31.9
2021-12-08T07:15:00Z,00000200,01000000,-000.18,0000.25,0000.16,-000.32,0000.42,0000.16,-000.14,-000.46,0000.15,21.7,28.2,,00.0,0637.3,31.9
2021-12-08T07:16:00Z,00000200,01000000,-000.11,0000.00,0000.27,0000.10,-000.03,0000.16,0000.36,0000.23,-000.13,21.6,28.2,,00.0,0637.2,31.8
2021-12-08T07:17:00Z,00000200,01000000,-000.41,0000.14,-000.21,-000.32,-000.28,-000.21,-000.04,0000.18,0000.21,21.6,28.1,,00.0,0637.2,31.8
2021-12-08T07:18:00Z,00000200,01000000,0000.21,-000.29,0000.16,-000.01,0000.14,0000.04,-000.42,-000.23,-000.11,21.5,28.1,,00.0,0637.2,31.7
2021-12-08T07:19:00Z,00000200,01000000,-000.52,0000.01,0000.04,0000.15,-000.18,0000.64,0000.48,-000.24,-000.05,21.4,28.0,,00.0,0637.2,31.7
2021-12-08T07:20:00Z,00000200,01000000,0000.09,0000.10,0000.29,-000.03,-000.11,0000.18,0000.19,0000.26,0000.41,21.3,28.0,,00.0,0637.2,31.7
2021-12-08T07:21:00Z,00000200,01000000,-000.36,0000.19,-000.19,-000.50,0000.17,-000.11,-000.45,0000.12,-000.00,21.2,27.9,,00.0,0637.2,31.6
2021-12-08T07:22:00Z,00000200,01000000,0000.10,0000.38,0000.23,0000.02,-000.16,0000.24,0000.18,-000.20,-000.55,21.2,27.9,,00.0,0637.1,31.6
2021-12-08T07:23:00Z,00000200,01000000,-000.21,0000.13,0000.44,-000.76,-000.17,0000.08,-000.04,0000.43,0000.12,21.1,27.8,,00.0,0637.2,31.6
2021-12-08T07:24:00Z,00000200,01000000,0000.31,0000.10,-000.25,-000.68,-000.31,0000.00,0000.22,0000.03,0000.19,21.1,27.8,,00.0,0637.2,31.6
2021-12-08T07:25:00Z,00000200,01000000,0001.53,0000.47,0000.20,-000.11,0000.07,0000.36,-000.05,-000.05,-000.23,21.1,27.8,,00.0,0637.2,31.6
2021-12-08T07:26:00Z,00000200,01000000,-000.43,0000.16,0000.27,0000.16,-000.09,0000.31,0000.05,0000.04,0000.00,21.2,27.8,,00.0,0637.2,31.6
2021-12-08T07:27:00Z,00000200,01000000,0000.32,0000.06,-000.14,0000.04,0000.06,-000.36,-000.20,-000.07,0000.14,21.2,27.8,,00.0,0637.2,31.6
2021-12-08T07:28:00Z,00000200,01000000,-000.00,-000.11,0000.11,0000.28,-000.10,-000.32,0000.50,0000.29,0000.16,21.2,27.8,,00.0,0637.2,31.6
2021-12-08T07:29:00Z,00000200,01000000,-000.06,0000.41,0000.54,-000.08,-000.13,0000.31,0000.16,0000.30,0000.04,21.3,27.8,,00.0,0637.2,31.6
2021-12-08T07:30:00Z,00000200,01000000,0000.24,0000.15,0000.31,-000.94,0000.24,0000.59,0000.18,-000.01,0000.17,21.3,27.8,,00.0,0637.2,31.6
2021-12-08T07:31:00Z,00000200,01000000,-000.54,0000.21,0000.10,-000.24,0000.11,0000.27,-000.01,0000.07,0000.26,21.4,27.8,,00.0,0637.2,31.6
2021-12-08T07:32:00Z,00000200,01000000,-000.18,0000.10,-000.00,0000.27,-000.15,-000.26,-000.07,0000.12,-000.31,21.4,27.8,,00.0,0637.3,31.6
2021-12-08T07:33:00Z,00000200,01000000,0000.38,-000.02,0000.43,0000.09,-000.10,0000.15,-000.01,-000.00,0000.11,21.4,27.8,,00.0,0637.2,31.6
2021-12-08T07:34:00Z,00000200,01000000,-000.44,0000.44,0000.07,-000.05,-000.15,0000.06,0000.29,0000.08,0000.29,21.4,27.8,,00.0,0637.2,31.6
2021-12-08T07:35:00Z,00000200,01000000,-000.01,-000.15,0000.52,0000.36,-000.19,0000.34,0000.01,0000.30,0000.19,21.4,27.8,,00.0,0637.2,31.6
2021-12-08T07:36:00Z,00000200,01000000,-000.02,-000.04,-000.05,0000.13,-000.10,-000.38,0000.36,-000.16,0000.11,21.3,27.8,,00.0,0637.1,31.5
2021-12-08T07:37:00Z,00000200,01000000,-000.79,0000.14,0000.08,0000.08,0000.03,-000.37,0000.01,0000.19,-000.11,21.3,27.8,,00.0,0637.0,31.5
2021-12-08T07:38:00Z,00000200,01000000,0000.33,0000.13,0000.17,-000.44,0000.13,0000.24,0000.34,0000.31,-000.12,21.2,27.7,,00.0,0637.1,31.5
2021-12-08T07:39:00Z,00000200,01000000,0000.24,0000.09,0000.44,-000.36,-000.02,-000.29,-000.18,0000.01,0000.03,21.2,27.7,,00.0,0637.0,31.5
2021-12-08T07:40:00Z,00000200,01000000,0000.04,0000.05,0000.28,0000.23,-000.18,0000.02,0000.15,0000.35,0000.35,21.3,27.7,,00.0,0637.0,31.5
2021-12-08T07:41:00Z,00000200,01000000,-000.63,0000.00,0000.26,-000.18,-000.09,-000.32,0000.31,0000.04,0000.33,21.3,27.7,,00.0,0637.0,31.5
2021-12-08T07:42:00Z,00000200,01000000,0000.36,0000.16,0000.21,-000.15,0000.17,0000.37,0000.02,0000.01,0000.02,21.3,27.7,,00.0,0637.0,31.5
2021-12-08T07:43:00Z,00000200,01000000,-000.99,0000.04,0000.24,0000.07,0000.08,-000.32,0000.14,0000.16,-000.06,21.3,27.7,,00.0,0637.0,31.5
2021-12-08T07:44:00Z,00000200,01000000,-000.39,0000.28,-000.02,0000.07,0000.04,-000.09,0000.22,0000.20,0000.31,21.4,27.7,,00.0,0637.0,31.5
2021-12-08T07:45:00Z,00000200,01000000,0000.38,0000.44,0000.38,-000.76,-000.32,0000.22,0000.20,0000.03,0000.01,21.4,27.7,,00.0,0637.1,31.5
2021-12-08T07:46:00Z,00000200,01000000,-000.48,0000.26,0000.12,0000.97,-000.20,0000.15,-000.10,0000.36,-000.12,21.4,27.8,,00.0,0637.0,31.5
2021-12-08T07:47:00Z,00000200,01000000,-000.28,0000.09,0000.04,-000.13,0000.21,0000.12,0000.46,-000.05,0000.23,21.5,27.8,,00.0,0637.0,31.5
2021-12-08T07:48:00Z,00000200,01000000,-000.68,0000.23,-000.10,0000.31,0000.15,-000.06,-000.05,-000.15,0000.11,21.5,27.8,,00.0,0637.0,31.5
2021-12-08T07:49:00Z,00000200,01000000,-000.12,0000.29,-000.03,-000.03,-000.25,0000.15,-000.02,0000.47,0000.09,21.5,27.8,,00.0,0637.1,31.5
2021-12-08T07:50:00Z,00000200,01000000,-000.47,0000.03,0000.42,0000.11,0000.03,-000.17,0000.12,0000.08,0000.31,21.5,27.8,,00.0,0637.1,31.5
2021-12-08T07:51:00Z,00000200,01000000,-000.70,0000.20,0000.23,-000.11,-000.22,0000.44,0000.33,-000.03,-000.27,21.6,27.8,,00.0,0637.0,31.6
2021-12-08T07:52:00Z,00000200,01000000,-000.65,0000.36,0000.21,-000.52,0000.05,0000.14,-000.33,0000.03,0000.38,21.6,27.8,,00.0,0637.1,31.6
2021-12-08T07:53:00Z,00000200,01000000,-000.74,-000.02,0000.10,-000.22,-000.02,0000.18,0000.09,-000.04,-000.52,21.6,27.8,,00.0,0637.0,31.6
2021-12-08T07:54:00Z,00000200,01000000,-000.23,0000.07,0000.24,-000.13,-000.13,-000.32,-000.04,-000.29,0000.35,21.7,27.9,,00.0,0637.0,31.6
2021-12-08T07:55:00Z,00000200,01000000,0000.26,0000.42,-000.02,-000.16,-000.19,-000.17,0000.12,0000.22,-000.01,21.7,27.9,,00.0,0636.9,31.6
2021-12-08T07:56:00Z,00000200,01000000,0000.19,0000.35,0000.29,-000.68,-000.00,-000.11,0000.40,0000.35,0000.27,21.7,27.9,,00.0,0637.0,31.6
2021-12-08T07:57:00Z,00000200,41000000,,,,,,,-000.33,-000.09,-000.49,21.8,28.0,,00.0,0637.0,31.6
2021-12-08T07:58:00Z,00000200,61000000,,,,,,,-000.13,-000.06,0000.10,21.5,28.0,,00.0,0636.2,31.6
2021-12-08T07:59:00Z,00000200,21000000,,,,,,,0000.29,-000.13,0000.00,21.5,28.1,,00.0,0636.2,31.6
